{"data":{"norad_id":64542,"epoch":"2026-05-24T21:33:27.999072Z","epoch_age_seconds":77116,"freshness":"FRESH","line1":"1 64542U 25135Q   26144.89824073  .00008157  00000+0  32571-3 0  9996","line2":"2 64542  97.4673 261.1019 0001561 233.3297 126.7798 15.25410573 51370","mean_motion":15.25410573,"eccentricity":0.0001561,"inclination_deg":97.4673,"raan_deg":261.1019,"arg_perigee_deg":233.3297,"mean_anomaly_deg":126.7798,"bstar":0.00032571,"rev_number":5137,"period_min":94.400814147235,"perigee_km":488.48079217869,"apogee_km":490.62488494629,"semimajor_km":6867.6898385625,"source":"CELESTRAK","updated_at":"2026-05-25T13:38:04.583743Z"}}